Flag for Austria Weather past 2 weeks in Eisenstadt, Burgenland, Austria

Now
50 °F

Overcast.


Feels Like: 46 °F
Forecast: 41 / 51 °F
Wind: 12 mph from West

Location: Eisenstadt

Current Time: Oct 22, 2014 at 3:28:10 PM

Latest Report: Oct 22, 2014 at 2:00 PM


Visibility: 9 mi

Pressure: 29.69 "Hg

Humidity: 65%

Dew point: 38 °F

Location of EisenstadtLocation

Historic Weather in Eisenstadt — Graph

°F

Eisenstadt temperature yesterday

Maximum temperature yesterday: 67 °F (at 2:00 PM)
Minimum temperature yesterday: 57 °F (at 9:00 AM)
Average temperature yesterday: 60 °F

Past Weeks' High & Low Weather Summary

 TemperatureHumidityPressure
High75 °F (Oct 9, 5:00 PM)100% (Oct 11, 8:00 AM)30.32 "Hg (Oct 11, 8:00 AM)
Low49 °F (Oct 22, 12:00 PM)52% (Oct 14, 3:00 PM)29.61 "Hg (Oct 22, 1:00 AM)
Average59 °F85%29.94 "Hg
* Reported Oct 7 2:00 PM — Oct 22 2:00 PM, Eisenstadt, Weather by CustomWeather, © 2014

Note: Actual official high and low records may vary slightly from our data, if they occured in-between our weather recording intervals... More about our weather records

Advertising

Eisenstadt weather history for previous 24 hours

 ConditionsComfort  
Time TempWeatherWind HumidityBarometerVisibility
2:00 PM
Oct 22
50 °FOvercast.12 mph65%29.69 "Hg9 mi
1:00 PM51 °FCool.7 mph62%29.71 "HgN/A
12:00 PM49 °FCool.8 mph66%29.73 "HgN/A
11:00 AM49 °FOvercast.7 mph64%29.72 "Hg6 mi
10:00 AM49 °FCool.8 mph63%29.72 "HgN/A
9:00 AM49 °FCool.7 mph63%29.72 "HgN/A
8:00 AM50 °FOvercast.9 mph62%29.72 "Hg6 mi
7:00 AM50 °FOvercast.10 mph62%29.69 "Hg6 mi
6:00 AM51 °FCool.9 mph62%29.69 "HgN/A
5:00 AM52 °FOvercast.12 mph60%29.69 "Hg6 mi
4:00 AM53 °FOvercast.10 mph60%29.65 "Hg6 mi
3:00 AM53 °FCool.9 mph64%29.67 "HgN/A
2:00 AM52 °FOvercast.10 mph72%29.68 "Hg6 mi
1:00 AM56 °FCool.1 mph94%29.61 "HgN/A
12:00 AM57 °FFog.1 mph94%29.62 "HgN/A
11:00 PM
Oct 21
58 °FOvercast.1 mph97%29.66 "Hg6 mi
10:00 PM59 °FFog.1 mph95%29.68 "HgN/A
9:00 PM59 °FCool.No wind96%29.71 "HgN/A
8:00 PM59 °FOvercast.2 mph95%29.74 "Hg9 mi
7:00 PM60 °FOvercast.No wind95%29.76 "Hg9 mi
6:00 PM61 °FCool.1 mph92%29.77 "HgN/A
5:00 PM63 °FOvercast.2 mph85%29.80 "Hg9 mi
4:00 PM64 °FMild.1 mph75%29.81 "HgN/A
3:00 PM65 °FMild.2 mph67%29.82 "HgN/A
Weather by CustomWeather, © 2014

See weather overviewHow to use our weather pages